| time (UTC) | temp F | wind direction | speed MPH | gust MPH | rain 1hr in | rain 24hr in | rain mn in | humidity % | barometer mb |
| 20260508134739 | 65 | 121 | 5.0 | 7.0 | 0.00 | 0.00 | 0.00 | 41 | 1011.8 |
| 20260508134237 | 65 | 137 | 5.0 | 7.0 | 0.00 | 0.00 | 0.00 | 41 | 1011.8 |
| 20260508133738 | 65 | 150 | 4.0 | 6.0 | 0.00 | 0.00 | 0.00 | 43 | 1011.8 |
| 20260508132739 | 64 | 199 | 4.0 | 5.0 | 0.00 | 0.00 | 0.00 | 45 | 1011.8 |
| 20260508132241 | 64 | 143 | 0.0 | 8.0 | 0.00 | 0.00 | 0.00 | 46 | 1011.8 |
| 20260508131231 | 63 | 116 | 6.0 | 8.0 | 0.00 | 0.00 | 0.00 | 47 | 1011.8 |
| 20260508130733 | 63 | 120 | 6.0 | 7.0 | 0.00 | 0.00 | 0.00 | 48 | 1012.8 |
| 20260508125731 | 63 | 140 | 3.0 | 6.0 | 0.00 | 0.00 | 0.00 | 50 | 1012.8 |
| 20260508124735 | 62 | 182 | 4.0 | 5.0 | 0.00 | 0.00 | 0.00 | 54 | 1012.8 |
| 20260508124233 | 62 | 193 | 4.0 | 5.0 | 0.00 | 0.00 | 0.00 | 54 | 1012.8 |
| 20260508123237 | 62 | 199 | 0.0 | 0.0 | 0.00 | 0.00 | 0.00 | 56 | 1012.8 |
| 20260508122735 | 62 | 199 | 0.0 | 3.0 | 0.00 | 0.00 | 0.00 | 58 | 1012.8 |
| 20260508121739 | 62 | 199 | 3.0 | 4.0 | 0.00 | 0.00 | 0.00 | 58 | 1012.8 |
| 20260508121238 | 62 | 199 | 0.0 | 0.0 | 0.00 | 0.00 | 0.00 | 60 | 1012.8 |
| 20260508120740 | 61 | 199 | 0.0 | 0.0 | 0.00 | 0.00 | 0.00 | 61 | 1011.8 |
| 20260508120242 | 61 | 199 | 0.0 | 0.0 | 0.00 | 0.00 | 0.00 | 61 | 1011.8 |
| 20260508115740 | 61 | 199 | 0.0 | 4.0 | 0.00 | 0.00 | 0.00 | 61 | 1011.8 |
| 20260508114744 | 61 | 199 | 0.0 | 0.0 | 0.00 | 0.00 | 0.00 | 61 | 1012.8 |
| 20260508114243 | 61 | 199 | 0.0 | 4.0 | 0.00 | 0.00 | 0.00 | 61 | 1012.8 |
| 20260508113744 | 61 | 199 | 0.0 | 4.0 | 0.00 | 0.00 | 0.00 | 61 | 1012.8 |
| 20260508113246 | 61 | 200 | 0.0 | 4.0 | 0.00 | 0.00 | 0.00 | 61 | 1012.8 |
| 20260508112740 | 61 | 207 | 0.0 | 0.0 | 0.00 | 0.00 | 0.00 | 61 | 1012.8 |
| 20260508112242 | 61 | 207 | 0.0 | 0.0 | 0.00 | 0.00 | 0.00 | 60 | 1012.8 |
| 20260508111744 | 61 | 207 | 0.0 | 4.0 | 0.00 | 0.00 | 0.00 | 59 | 1012.8 |
| 20260508111243 | 62 | 207 | 0.0 | 5.0 | 0.00 | 0.00 | 0.00 | 58 | 1012.8 |
| 20260508110744 | 62 | 210 | 4.0 | 4.0 | 0.00 | 0.00 | 0.00 | 55 | 1011.8 |
| 20260508110246 | 62 | 210 | 0.0 | 0.0 | 0.00 | 0.00 | 0.00 | 54 | 1011.8 |
| 20260508105745 | 62 | 209 | 0.0 | 4.0 | 0.00 | 0.00 | 0.00 | 54 | 1011.8 |
| 20260508105247 | 62 | 210 | 0.0 | 0.0 | 0.00 | 0.00 | 0.00 | 55 | 1012.8 |
| 20260508104748 | 62 | 210 | 0.0 | 4.0 | 0.00 | 0.00 | 0.00 | 55 | 1012.8 |
| 20260508104247 | 62 | 210 | 0.0 | 4.0 | 0.00 | 0.00 | 0.00 | 55 | 1012.8 |
| 20260508103749 | 62 | 178 | 0.0 | 4.0 | 0.00 | 0.00 | 0.00 | 55 | 1011.8 |
| 20260508103251 | 62 | 178 | 3.0 | 4.0 | 0.00 | 0.00 | 0.00 | 54 | 1011.8 |
| 20260508102749 | 62 | 178 | 0.0 | 4.0 | 0.00 | 0.00 | 0.00 | 53 | 1011.8 |
| 20260508102251 | 62 | 177 | 0.0 | 4.0 | 0.00 | 0.00 | 0.00 | 53 | 1011.8 |
| 20260508101753 | 62 | 177 | 0.0 | 3.0 | 0.00 | 0.00 | 0.00 | 51 | 1011.8 |
| 20260508101252 | 62 | 177 | 0.0 | 0.0 | 0.00 | 0.00 | 0.00 | 51 | 1011.8 |
| 20260508100754 | 62 | 177 | 0.0 | 5.0 | 0.00 | 0.00 | 0.00 | 51 | 1011.8 |
| 20260508095754 | 62 | 170 | 0.0 | 4.0 | 0.00 | 0.00 | 0.00 | 50 | 1011.8 |
| 20260508095256 | 62 | 169 | 0.0 | 0.0 | 0.00 | 0.00 | 0.00 | 50 | 1011.8 |
| 20260508094256 | 62 | 169 | 0.0 | 0.0 | 0.00 | 0.00 | 0.00 | 50 | 1011.8 |
| 20260508093301 | 63 | 169 | 0.0 | 0.0 | 0.00 | 0.00 | 0.00 | 50 | 1011.8 |
| 20260508092759 | 62 | 169 | 0.0 | 0.0 | 0.00 | 0.00 | 0.00 | 50 | 1011.8 |
| 20260508092301 | 63 | 169 | 0.0 | 0.0 | 0.00 | 0.00 | 0.00 | 50 | 1011.8 |
| 20260508091301 | 62 | 169 | 0.0 | 0.0 | 0.00 | 0.00 | 0.00 | 51 | 1011.8 |
| 20260508090305 | 62 | 169 | 0.0 | 0.0 | 0.00 | 0.00 | 0.00 | 52 | 1011.8 |
| 20260508085803 | 62 | 169 | 0.0 | 0.0 | 0.00 | 0.00 | 0.00 | 53 | 1011.8 |
| 20260508084807 | 62 | 169 | 0.0 | 5.0 | 0.00 | 0.00 | 0.00 | 53 | 1011.8 |
| 20260508084306 | 62 | 170 | 4.0 | 5.0 | 0.00 | 0.00 | 0.00 | 54 | 1011.8 |
| 20260508083808 | 62 | 170 | 3.0 | 4.0 | 0.00 | 0.00 | 0.00 | 53 | 1011.8 |
| 20260508083342 | 62 | 175 | 3.0 | 5.0 | 0.00 | 0.00 | 0.00 | 54 | 1011.8 |
| 20260508083309 | 62 | 175 | 3.0 | 5.0 | 0.00 | 0.00 | 0.00 | 54 | 1011.8 |
| 20260508082808 | 62 | 192 | 4.0 | 5.0 | 0.00 | 0.00 | 0.00 | 56 | 1011.8 |
| 20260508082310 | 62 | 192 | 3.0 | 0.0 | 0.00 | 0.00 | 0.00 | 58 | 1011.8 |
| 20260508081812 | 62 | 254 | 0.0 | 0.0 | 0.00 | 0.00 | 0.00 | 59 | 1011.8 |
| 20260508081312 | 62 | 254 | 0.0 | 4.0 | 0.00 | 0.00 | 0.00 | 59 | 1011.8 |
| 20260508080812 | 62 | 254 | 0.0 | 3.0 | 0.00 | 0.00 | 0.00 | 59 | 1012.8 |
| 20260508080314 | 63 | 255 | 3.0 | 0.0 | 0.00 | 0.00 | 0.00 | 59 | 1012.8 |
| 20260508075315 | 63 | 255 | 0.0 | 0.0 | 0.00 | 0.00 | 0.00 | 58 | 1012.8 |
| 20260508074825 | 63 | 255 | 0.0 | 0.0 | 0.00 | 0.00 | 0.00 | 58 | 1012.8 |
| 20260508074816 | 63 | 255 | 0.0 | 0.0 | 0.00 | 0.00 | 0.00 | 58 | 1012.8 |
| 20260508073817 | 63 | 255 | 0.0 | 0.0 | 0.00 | 0.00 | 0.00 | 57 | 1012.8 |
| 20260508073319 | 63 | 255 | 0.0 | 0.0 | 0.00 | 0.00 | 0.00 | 56 | 1012.8 |
| 20260508072319 | 63 | 255 | 0.0 | 4.0 | 0.00 | 0.00 | 0.00 | 55 | 1012.8 |
| 20260508070820 | 63 | 243 | 0.0 | 5.0 | 0.00 | 0.00 | 0.00 | 50 | 1012.8 |
| 20260508070320 | 63 | 240 | 0.0 | 4.0 | 0.00 | 0.00 | 0.00 | 48 | 1012.8 |
| 20260508065318 | 63 | 217 | 0.0 | 0.0 | 0.00 | 0.00 | 0.00 | 46 | 1012.8 |
| 20260508064319 | 64 | 213 | 0.0 | 4.0 | 0.00 | 0.04 | 0.00 | 47 | 1012.8 |
| 20260508063820 | 64 | 213 | 0.0 | 0.0 | 0.00 | 0.04 | 0.00 | 47 | 1012.8 |
| 20260508063317 | 64 | 213 | 0.0 | 4.0 | 0.00 | 0.04 | 0.00 | 46 | 1012.8 |
| 20260508062816 | 64 | 213 | 0.0 | 3.0 | 0.00 | 0.04 | 0.00 | 46 | 1012.8 |
| 20260508062229 | 64 | 213 | 0.0 | 3.0 | 0.00 | 0.04 | 0.00 | 46 | 1012.8 |
| 20260508061721 | 64 | 213 | 0.0 | 4.0 | 0.00 | 0.04 | 0.00 | 45 | 1012.8 |
| 20260508061220 | 64 | 213 | 0.0 | 3.0 | 0.00 | 0.04 | 0.00 | 44 | 1012.8 |
| 20260508060200 | 64 | 213 | 0.0 | 3.0 | 0.00 | 0.04 | 0.00 | 44 | 1012.8 |
| 20260508055654 | 64 | 213 | 0.0 | 6.0 | 0.00 | 0.04 | 0.00 | 44 | 1012.8 |
| 20260508055156 | 64 | 213 | 4.0 | 7.0 | 0.00 | 0.04 | 0.00 | 44 | 1013.8 |
| 20260508054657 | 64 | 212 | 4.0 | 7.0 | 0.00 | 0.04 | 0.00 | 44 | 1013.8 |
| 20260508054156 | 64 | 204 | 4.0 | 6.0 | 0.00 | 0.04 | 0.00 | 43 | 1013.8 |
| 20260508053200 | 64 | 228 | 4.0 | 6.0 | 0.00 | 0.04 | 0.00 | 42 | 1013.8 |
| 20260508052654 | 64 | 201 | 4.0 | 6.0 | 0.00 | 0.04 | 0.00 | 42 | 1013.8 |
| 20260508052151 | 64 | 218 | 5.0 | 6.0 | 0.00 | 0.04 | 0.00 | 41 | 1013.8 |
| 20260508051653 | 64 | 221 | 3.0 | 5.0 | 0.00 | 0.04 | 0.00 | 40 | 1013.8 |
| 20260508051032 | 64 | 223 | 3.0 | 6.0 | 0.00 | 0.04 | 0.00 | 38 | 1013.8 |
| 20260508050534 | 64 | 188 | 0.0 | 3.0 | 0.00 | 0.04 | 0.00 | 37 | 1013.8 |
| 20260508045534 | 64 | 187 | 0.0 | 0.0 | 0.00 | 0.04 | 0.00 | 36 | 1013.8 |
| 20260508045036 | 64 | 187 | 0.0 | 3.0 | 0.00 | 0.04 | 0.00 | 36 | 1013.8 |
| 20260508044037 | 64 | 187 | 0.0 | 3.0 | 0.00 | 0.04 | 0.00 | 35 | 1013.8 |
| 20260508043538 | 64 | 187 | 0.0 | 4.0 | 0.00 | 0.04 | 0.00 | 35 | 1013.8 |
| 20260508043040 | 64 | 187 | 0.0 | 0.0 | 0.00 | 0.04 | 0.00 | 35 | 1013.8 |
| 20260508042539 | 64 | 187 | 0.0 | 3.0 | 0.00 | 0.04 | 0.00 | 35 | 1013.8 |
| 20260508042041 | 65 | 187 | 0.0 | 4.0 | 0.00 | 0.04 | 0.00 | 34 | 1013.8 |
| 20260508041041 | 65 | 182 | 0.0 | 3.0 | 0.00 | 0.04 | 0.00 | 33 | 1013.8 |
| 20260508040543 | 65 | 132 | 0.0 | 5.0 | 0.00 | 0.04 | 0.00 | 33 | 1013.8 |
| 20260508035543 | 65 | 130 | 0.0 | 0.0 | 0.00 | 0.04 | 0.00 | 33 | 1013.8 |
| 20260508033548 | 65 | 130 | 0.0 | 0.0 | 0.00 | 0.04 | 0.00 | 32 | 1012.8 |
| 20260508033049 | 65 | 130 | 0.0 | 4.0 | 0.00 | 0.04 | 0.00 | 31 | 1012.8 |
| 20260508032548 | 66 | 130 | 0.0 | 4.0 | 0.00 | 0.04 | 0.00 | 31 | 1012.8 |
| 20260508031050 | 65 | 130 | 0.0 | 3.0 | 0.00 | 0.04 | 0.00 | 31 | 1012.8 |
| 20260508030552 | 65 | 130 | 0.0 | 4.0 | 0.00 | 0.04 | 0.00 | 32 | 1012.8 |
| 20260508030054 | 65 | 130 | 3.0 | 6.0 | 0.00 | 0.04 | 0.00 | 32 | 1012.8 |
| 20260508025552 | 65 | 143 | 4.0 | 4.0 | 0.00 | 0.04 | 0.00 | 32 | 1012.8 |
| 20260508024055 | 66 | 143 | 3.0 | 5.0 | 0.00 | 0.04 | 0.00 | 31 | 1012.8 |
| 20260508023058 | 66 | 147 | 5.0 | 5.0 | 0.00 | 0.04 | 0.00 | 30 | 1012.8 |
| 20260508021601 | 66 | 163 | 0.0 | 4.0 | 0.00 | 0.04 | 0.00 | 29 | 1012.8 |
| 20260508021059 | 66 | 179 | 0.0 | 6.0 | 0.00 | 0.04 | 0.00 | 30 | 1012.8 |
| 20260508020103 | 66 | 145 | 0.0 | 7.0 | 0.00 | 0.04 | 0.00 | 30 | 1012.8 |
| 20260508015552 | 66 | 136 | 0.0 | 5.0 | 0.00 | 0.04 | 0.00 | 30 | 1012.8 |
| 20260508015054 | 66 | 136 | 3.0 | 6.0 | 0.00 | 0.04 | 0.00 | 31 | 1012.8 |
| 20260508014556 | 67 | 174 | 3.0 | 6.0 | 0.00 | 0.04 | 0.00 | 30 | 1012.8 |
| 20260508013058 | 67 | 197 | 0.0 | 5.0 | 0.00 | 0.04 | 0.00 | 28 | 1012.8 |
| 20260508012059 | 67 | 216 | 3.0 | 6.0 | 0.00 | 0.04 | 0.00 | 27 | 1012.8 |
| 20260508011551 | 67 | 201 | 3.0 | 5.0 | 0.00 | 0.04 | 0.00 | 27 | 1012.8 |
| 20260508011044 | 67 | 175 | 3.0 | 6.0 | 0.00 | 0.04 | 0.00 | 27 | 1012.8 |
| 20260508010547 | 67 | 147 | 3.0 | 6.0 | 0.00 | 0.04 | 0.00 | 26 | 1012.8 |
| 20260508005547 | 67 | 131 | 3.0 | 7.0 | 0.00 | 0.04 | 0.00 | 26 | 1012.8 |
| 20260508005048 | 67 | 216 | 5.0 | 7.0 | 0.00 | 0.04 | 0.00 | 26 | 1012.8 |
| 20260508004550 | 67 | 176 | 3.0 | 8.0 | 0.00 | 0.04 | 0.00 | 26 | 1012.8 |
| 20260508004049 | 67 | 184 | 5.0 | 7.0 | 0.00 | 0.04 | 0.00 | 25 | 1012.8 |
| 20260508003551 | 68 | 210 | 5.0 | 7.0 | 0.00 | 0.04 | 0.00 | 26 | 1012.8 |
| 20260508003048 | 68 | 152 | 4.0 | 6.0 | 0.00 | 0.04 | 0.00 | 26 | 1012.8 |
| 20260508002547 | 68 | 205 | 4.0 | 7.0 | 0.00 | 0.04 | 0.00 | 25 | 1012.8 |
| 20260508002049 | 68 | 215 | 3.0 | 7.0 | 0.00 | 0.04 | 0.00 | 25 | 1012.8 |
| 20260508001550 | 68 | 134 | 3.0 | 7.0 | 0.00 | 0.04 | 0.00 | 25 | 1012.8 |
| 20260508001044 | 68 | 206 | 4.0 | 6.0 | 0.00 | 0.04 | 0.00 | 25 | 1012.8 |
| 20260508000547 | 69 | 165 | 4.0 | 7.0 | 0.00 | 0.04 | 0.00 | 25 | 1012.8 |
| 20260508000043 | 68 | 167 | 4.0 | 6.0 | 0.00 | 0.04 | 0.00 | 24 | 1012.8 |
| 20260507235542 | 69 | 207 | 0.0 | 6.0 | 0.00 | 0.04 | 0.00 | 25 | 1012.8 |
| 20260507235043 | 68 | 202 | 3.0 | 8.0 | 0.00 | 0.04 | 0.00 | 25 | 1012.8 |
| 20260507234545 | 68 | 198 | 5.0 | 6.0 | 0.00 | 0.04 | 0.00 | 25 | 1012.8 |
| 20260507234039 | 68 | 205 | 3.0 | 7.0 | 0.00 | 0.04 | 0.00 | 25 | 1012.8 |
| 20260507233043 | 69 | 148 | 4.0 | 8.0 | 0.00 | 0.04 | 0.00 | 24 | 1012.8 |
| 20260507232542 | 69 | 183 | 6.0 | 9.0 | 0.00 | 0.04 | 0.00 | 24 | 1012.8 |
| 20260507232043 | 69 | 204 | 4.0 | 7.0 | 0.00 | 0.04 | 0.00 | 24 | 1012.8 |
| 20260507231545 | 69 | 227 | 4.0 | 7.0 | 0.00 | 0.04 | 0.00 | 24 | 1012.8 |
| 20260507231044 | 69 | 200 | 4.0 | 7.0 | 0.00 | 0.04 | 0.00 | 24 | 1012.8 |
| 20260507230546 | 69 | 188 | 4.0 | 8.0 | 0.00 | 0.04 | 0.00 | 23 | 1012.8 |
| 20260507230048 | 69 | 204 | 5.0 | 8.0 | 0.00 | 0.04 | 0.00 | 23 | 1012.8 |
| 20260507225043 | 70 | 202 | 4.0 | 6.0 | 0.00 | 0.04 | 0.00 | 22 | 1012.8 |
| 20260507224540 | 70 | 131 | 4.0 | 5.0 | 0.00 | 0.04 | 0.00 | 22 | 1012.8 |
| 20260507224039 | 70 | 131 | 4.0 | 6.0 | 0.00 | 0.04 | 0.00 | 22 | 1012.8 |
| 20260507223541 | 70 | 134 | 3.0 | 4.0 | 0.00 | 0.04 | 0.00 | 22 | 1012.8 |
| 20260507223043 | 70 | 134 | 3.0 | 6.0 | 0.00 | 0.04 | 0.00 | 22 | 1012.8 |
| 20260507222043 | 70 | 120 | 4.0 | 6.0 | 0.00 | 0.04 | 0.00 | 22 | 1012.8 |
| 20260507221545 | 70 | 122 | 4.0 | 7.0 | 0.00 | 0.04 | 0.00 | 22 | 1012.8 |
| 20260507221044 | 70 | 125 | 5.0 | 7.0 | 0.00 | 0.04 | 0.00 | 22 | 1012.8 |
| 20260507220546 | 70 | 124 | 3.0 | 5.0 | 0.00 | 0.04 | 0.00 | 22 | 1012.8 |
| 20260507220048 | 70 | 125 | 4.0 | 6.0 | 0.00 | 0.04 | 0.00 | 22 | 1012.8 |
| 20260507215546 | 70 | 119 | 5.0 | 6.0 | 0.00 | 0.04 | 0.00 | 22 | 1012.8 |
| 20260507215048 | 70 | 123 | 5.0 | 7.0 | 0.00 | 0.04 | 0.00 | 22 | 1013.8 |
| 20260507214540 | 70 | 109 | 0.0 | 7.0 | 0.00 | 0.04 | 0.00 | 22 | 1013.8 |
| 20260507214040 | 70 | 120 | 4.0 | 8.0 | 0.00 | 0.04 | 0.00 | 22 | 1013.8 |
| 20260507213541 | 70 | 118 | 6.0 | 8.0 | 0.00 | 0.04 | 0.00 | 22 | 1013.8 |
| 20260507213043 | 70 | 115 | 7.0 | 9.0 | 0.00 | 0.04 | 0.00 | 22 | 1013.8 |
| 20260507212541 | 69 | 114 | 6.0 | 7.0 | 0.00 | 0.04 | 0.00 | 22 | 1013.8 |
| 20260507212043 | 70 | 115 | 5.0 | 8.0 | 0.00 | 0.04 | 0.00 | 22 | 1013.8 |
| 20260507211545 | 70 | 101 | 6.0 | 8.0 | 0.00 | 0.04 | 0.00 | 22 | 1013.8 |
| 20260507211044 | 70 | 181 | 4.0 | 7.0 | 0.00 | 0.04 | 0.00 | 22 | 1013.8 |
| 20260507210545 | 70 | 180 | 3.0 | 6.0 | 0.00 | 0.04 | 0.00 | 22 | 1013.8 |
| 20260507210047 | 70 | 124 | 4.0 | 8.0 | 0.00 | 0.04 | 0.00 | 22 | 1013.8 |
| 20260507205048 | 70 | 96 | 5.0 | 6.0 | 0.00 | 0.04 | 0.00 | 22 | 1013.8 |
| 20260507203551 | 70 | 127 | 5.0 | 7.0 | 0.00 | 0.04 | 0.00 | 22 | 1013.8 |
| 20260507202052 | 71 | 141 | 4.0 | 7.0 | 0.00 | 0.04 | 0.00 | 21 | 1013.8 |
| 20260507201554 | 71 | 99 | 4.0 | 5.0 | 0.00 | 0.04 | 0.00 | 21 | 1013.8 |
| 20260507201053 | 71 | 169 | 3.0 | 7.0 | 0.00 | 0.04 | 0.00 | 21 | 1013.8 |
| 20260507200549 | 70 | 109 | 5.0 | 7.0 | 0.00 | 0.04 | 0.00 | 22 | 1013.8 |
| 20260507200051 | 71 | 110 | 5.0 | 7.0 | 0.00 | 0.04 | 0.00 | 21 | 1013.8 |
| 20260507195536 | 71 | 120 | 4.0 | 9.0 | 0.00 | 0.04 | 0.00 | 21 | 1013.8 |
| 20260507195038 | 71 | 166 | 6.0 | 5.0 | 0.00 | 0.04 | 0.00 | 21 | 1014.8 |
| 20260507194540 | 71 | 75 | 4.0 | 6.0 | 0.00 | 0.04 | 0.00 | 21 | 1014.8 |
| 20260507194033 | 71 | 333 | 4.0 | 6.0 | 0.00 | 0.04 | 0.00 | 21 | 1014.8 |
| 20260507193535 | 71 | 313 | 3.0 | 6.0 | 0.00 | 0.04 | 0.00 | 21 | 1014.8 |
| 20260507193038 | 70 | 67 | 4.0 | 7.0 | 0.00 | 0.04 | 0.00 | 19 | 1014.8 |
| 20260507192037 | 71 | 89 | 4.0 | 6.0 | 0.00 | 0.04 | 0.00 | 21 | 1014.8 |
| 20260507191539 | 70 | 8 | 3.0 | 8.0 | 0.00 | 0.04 | 0.00 | 22 | 1014.8 |
| 20260507190530 | 70 | 106 | 3.0 | 6.0 | 0.00 | 0.04 | 0.00 | 22 | 1014.8 |
| 20260507185530 | 70 | 113 | 4.0 | 10.0 | 0.00 | 0.04 | 0.00 | 22 | 1014.8 |
| 20260507185032 | 69 | 93 | 5.0 | 10.0 | 0.00 | 0.04 | 0.00 | 22 | 1014.8 |
| 20260507184032 | 69 | 31 | 7.0 | 10.0 | 0.00 | 0.04 | 0.00 | 22 | 1014.8 |
| 20260507183534 | 69 | 34 | 7.0 | 9.0 | 0.00 | 0.04 | 0.00 | 22 | 1014.8 |
| 20260507183037 | 71 | 157 | 6.0 | 11.0 | 0.00 | 0.04 | 0.00 | 22 | 1014.8 |
| 20260507182535 | 70 | 330 | 7.0 | 11.0 | 0.00 | 0.04 | 0.00 | 22 | 1014.8 |
| 20260507182036 | 69 | 44 | 6.0 | 11.0 | 0.00 | 0.04 | 0.00 | 22 | 1014.8 |
| 20260507181037 | 69 | 68 | 7.0 | 11.0 | 0.00 | 0.04 | 0.00 | 22 | 1014.8 |
| 20260507180539 | 68 | 295 | 9.0 | 13.0 | 0.00 | 0.04 | 0.00 | 22 | 1015.8 |
| 20260507180040 | 69 | 55 | 8.0 | 12.0 | 0.00 | 0.04 | 0.00 | 22 | 1015.8 |
| 20260507175530 | 68 | 340 | 7.0 | 12.0 | 0.00 | 0.04 | 0.00 | 22 | 1015.8 |
| 20260507175026 | 68 | 33 | 6.0 | 11.0 | 0.00 | 0.04 | 0.00 | 22 | 1015.8 |
| 20260507174026 | 67 | 356 | 8.0 | 13.0 | 0.00 | 0.04 | 0.00 | 23 | 1015.8 |
| 20260507173528 | 68 | 308 | 5.0 | 11.0 | 0.00 | 0.04 | 0.00 | 23 | 1015.8 |
| 20260507173030 | 67 | 334 | 8.0 | 15.0 | 0.00 | 0.04 | 0.00 | 23 | 1015.8 |
| 20260507172529 | 67 | 254 | 5.0 | 11.0 | 0.00 | 0.04 | 0.00 | 23 | 1015.8 |
| 20260507172030 | 67 | 50 | 7.0 | 12.0 | 0.00 | 0.04 | 0.00 | 24 | 1016.8 |
| 20260507171532 | 66 | 46 | 6.0 | 12.0 | 0.00 | 0.04 | 0.00 | 24 | 1016.8 |
| 20260507171031 | 67 | 31 | 8.0 | 10.0 | 0.00 | 0.04 | 0.00 | 24 | 1016.8 |
| 20260507170533 | 66 | 20 | 7.0 | 10.0 | 0.00 | 0.04 | 0.00 | 24 | 1016.8 |
| 20260507170035 | 66 | 334 | 5.0 | 11.0 | 0.00 | 0.04 | 0.00 | 25 | 1016.8 |
| 20260507165533 | 66 | 27 | 7.0 | 8.0 | 0.00 | 0.04 | 0.00 | 24 | 1016.8 |
| 20260507165035 | 66 | 93 | 6.0 | 8.0 | 0.00 | 0.04 | 0.00 | 24 | 1016.8 |
| 20260507164035 | 67 | 298 | 3.0 | 8.0 | 0.00 | 0.04 | 0.00 | 26 | 1016.8 |
| 20260507163538 | 65 | 356 | 4.0 | 8.0 | 0.00 | 0.04 | 0.00 | 26 | 1016.8 |
| 20260507163040 | 65 | 41 | 5.0 | 9.0 | 0.00 | 0.04 | 0.00 | 26 | 1016.8 |
| 20260507162039 | 65 | 70 | 6.0 | 7.0 | 0.00 | 0.04 | 0.00 | 27 | 1016.8 |
| 20260507161541 | 64 | 115 | 4.0 | 9.0 | 0.00 | 0.04 | 0.00 | 28 | 1016.8 |
| 20260507161040 | 64 | 260 | 4.0 | 7.0 | 0.00 | 0.04 | 0.00 | 30 | 1016.8 |
| 20260507160542 | 64 | 224 | 4.0 | 10.0 | 0.00 | 0.04 | 0.00 | 32 | 1016.8 |
| 20260507160043 | 63 | 19 | 6.0 | 7.0 | 0.00 | 0.04 | 0.00 | 32 | 1016.8 |
| 20260507155043 | 62 | 34 | 7.0 | 11.0 | 0.00 | 0.04 | 0.00 | 33 | 1016.8 |
| 20260507154545 | 62 | 14 | 6.0 | 8.0 | 0.00 | 0.04 | 0.00 | 33 | 1016.8 |
| 20260507154038 | 62 | 18 | 5.0 | 10.0 | 0.00 | 0.04 | 0.00 | 34 | 1016.8 |
| 20260507153540 | 61 | 28 | 7.0 | 10.0 | 0.00 | 0.04 | 0.00 | 35 | 1017.8 |
| 20260507153041 | 62 | 2 | 5.0 | 12.0 | 0.00 | 0.04 | 0.00 | 35 | 1017.8 |
| 20260507152042 | 62 | 12 | 6.0 | 6.0 | 0.00 | 0.04 | 0.00 | 35 | 1017.8 |
| 20260507151544 | 62 | 280 | 3.0 | 9.0 | 0.00 | 0.04 | 0.00 | 36 | 1017.8 |
| 20260507150544 | 62 | 21 | 5.0 | 7.0 | 0.00 | 0.04 | 0.00 | 36 | 1017.8 |
| 20260507150043 | 61 | 5 | 5.0 | 9.0 | 0.00 | 0.04 | 0.00 | 36 | 1017.8 |
| 20260507145540 | 61 | 330 | 4.0 | 8.0 | 0.00 | 0.04 | 0.00 | 37 | 1017.8 |
| 20260507145041 | 60 | 70 | 4.0 | 8.0 | 0.00 | 0.04 | 0.00 | 38 | 1017.8 |
| 20260507144539 | 60 | 248 | 4.0 | 10.0 | 0.00 | 0.04 | 0.00 | 38 | 1017.8 |
| 20260507144037 | 60 | 342 | 0.0 | 8.0 | 0.00 | 0.04 | 0.00 | 39 | 1017.8 |
| 20260507143539 | 60 | 319 | 5.0 | 7.0 | 0.00 | 0.04 | 0.00 | 41 | 1017.8 |
| 20260507143036 | 59 | 303 | 4.0 | 8.0 | 0.00 | 0.04 | 0.00 | 46 | 1017.8 |
| 20260507142531 | 58 | 12 | 7.0 | 8.0 | 0.00 | 0.04 | 0.00 | 46 | 1017.8 |
| 20260507142032 | 59 | 315 | 5.0 | 8.0 | 0.00 | 0.04 | 0.00 | 47 | 1017.8 |
| 20260507141530 | 59 | 339 | 4.0 | 9.0 | 0.00 | 0.04 | 0.00 | 48 | 1017.8 |
| 20260507141027 | 59 | 341 | 5.0 | 8.0 | 0.00 | 0.04 | 0.00 | 49 | 1017.8 |
| 20260507140529 | 59 | 331 | 3.0 | 7.0 | 0.00 | 0.04 | 0.00 | 53 | 1017.8 |